Location: Chaves
(41.7330°N, 7.4670°W)
Time: 03:48:19
(UTC+01:00)

ISS - Visible Passes

Search period start: 24 April 2019 00:00
Search period end: 04 May 2019 00:00
Orbit: 408 x 410 km, 51.6° (Epoch: 24 April)

Date Brightness Start Highest point End Pass type
(mag) Time Alt. Az. Time Alt. Az. Time Alt. Az.
28 Apr -2.5 05:57:48 10° SSW 06:00:50 34° SE 06:03:53 10° ENE visible
29 Apr -1.6 05:08:05 12° S 05:10:08 19° SE 05:12:34 10° E visible
30 Apr -1.0 04:19:20 10° SE 04:19:29 10° SE 04:20:06 10° ESE visible
30 Apr -3.8 05:52:15 10° SW 05:55:33 89° WSW 05:58:52 10° NE visible
01 May -3.2 05:03:14 26° SSW 05:04:42 48° SE 05:07:55 10° ENE visible
02 May -2.1 04:14:19 25° ESE 04:14:19 25° ESE 04:16:44 10° ENE visible
02 May -2.9 05:47:15 10° W 05:50:23 40° NNW 05:53:32 10° NE visible
03 May -3.7 04:58:03 32° WSW 04:59:25 67° NNW 05:02:43 10° NE visible
